Theta_e
301 301 301 302 302 303 303 303 303 304 304 305 305 306 307 308 308 305 303 301 298 292 293 295 294 292 292 291 287 291 290 292 291 285 285 285 285 287 285 288 287 287 287 286 288 287 285 299 297 293 296 301 301 302
302 301 301 302 302 302 302 303 303 304 304 304 305 306 307 308 308 307 300 301 301 295 293 299 298 300 297 296 292 293 291 291 293 288 288 288 286 286 285 283 290 285 288 287 288 289 297 300 298 301 301 300 301 302
302 301 301 301 301 302 302 302 303 303 304 304 305 305 306 307 307 307 303 302 299 293 294 295 293 298 301 300 302 290 293 294 295 296 292 290 285 289 284 286 288 291 294 290 290 293 295 298 300 301 301 301 303 303
303 302 302 302 301 302 302 302 302 303 304 304 305 305 305 307 307 306 301 303 299 294 289 291 299 298 301 302 300 298 296 297 296 296 292 290 287 292 289 289 289 293 294 291 290 294 296 298 299 299 300 302 302 303
303 303 303 302 302 302 302 302 302 303 303 305 305 305 305 306 306 305 304 304 304 296 290 292 299 300 302 302 300 299 297 295 294 290 291 290 293 291 293 293 289 294 292 290 289 294 294 295 299 301 299 300 302 302
304 303 303 303 302 302 302 302 302 303 303 304 304 304 305 305 306 302 297 300 302 300 293 288 298 297 300 301 300 299 297 296 295 289 292 295 296 294 289 288 293 295 296 298 295 299 299 299 301 301 299 299 303 304
303 304 304 303 303 303 302 302 303 303 303 304 303 304 305 307 303 298 297 301 302 302 293 289 290 297 300 301 299 298 298 297 296 295 294 294 294 294 292 287 292 295 296 296 299 300 298 299 298 302 302 303 304 304
304 304 304 304 303 303 302 302 303 303 303 303 303 305 307 306 304 302 305 304 304 299 297 288 289 294 299 294 294 298 295 295 295 294 295 292 294 294 289 293 294 294 296 296 297 298 299 300 302 303 303 303 302 302
304 304 304 304 303 303 302 302 302 303 302 303 303 305 304 300 298 301 305 306 303 298 292 291 288 287 297 297 296 296 295 291 296 291 291 292 290 287 289 290 292 294 294 294 297 298 299 298 299 300 301 301 301 303
303 304 304 304 303 303 303 302 302 303 303 301 302 299 297 299 304 307 301 297 295 297 295 291 296 290 295 294 292 291 292 288 287 289 293 287 287 291 293 294 295 297 298 298 296 296 297 297 298 299 299 300 301 302
303 303 304 304 304 303 303 302 302 303 298 294 291 294 298 302 300 296 293 291 292 291 295 295 296 293 297 291 289 291 287 288 284 288 288 288 287 292 298 298 299 300 299 299 299 300 301 300 299 299 300 301 301 301
303 303 303 303 303 303 302 302 302 298 294 294 294 297 297 296 293 290 288 290 290 290 294 294 294 295 295 296 290 290 286 288 283 290 288 285 291 296 297 297 298 299 300 301 302 301 302 302 302 302 302 302 302 303
302 303 303 303 303 303 302 302 302 300 300 300 295 293 292 291 286 285 284 287 288 293 295 295 292 296 293 294 289 288 284 284 289 287 286 290 295 296 297 298 299 302 301 302 301 302 302 302 304 304 303 304 305 304
302 303 303 303 302 302 301 300 300 299 295 292 290 286 286 286 288 290 291 292 295 294 294 294 293 294 294 290 290 284 287 286 283 283 285 293 296 297 298 299 299 300 302 301 301 302 302 301 302 304 304 305 305 304
302 303 303 301 301 299 300 301 300 298 293 291 291 286 288 292 292 293 295 294 296 296 294 292 292 293 290 287 289 285 282 281 283 286 292 297 298 298 298 299 300 301 301 301 302 301 301 302 302 302 303 304 305 305
302 301 299 299 299 300 300 299 298 297 294 292 292 290 292 290 291 292 293 294 297 294 293 293 290 288 287 287 283 283 282 282 288 289 297 297 297 298 299 299 300 301 302 302 303 303 303 303 302 302 303 304 302 303
301 297 298 300 300 300 299 296 296 295 293 293 293 295 293 292 292 293 294 295 297 295 292 291 288 286 288 285 283 284 285 291 295 297 298 298 298 298 299 299 301 301 301 302 303 303 301 302 303 302 300 301 302 303
297 299 300 300 299 298 295 296 294 294 291 295 293 294 293 295 295 295 295 296 296 294 293 292 292 288 287 285 286 290 290 295 297 297 298 300 300 300 300 301 300 301 301 302 303 303 302 302 301 300 301 301 300 300
298 300 301 301 299 294 290 292 295 289 293 296 295 294 294 295 296 298 297 297 297 298 296 293 291 289 291 292 293 295 296 296 298 299 300 300 301 300 299 300 300 301 301 302 303 303 303 302 302 303 303 300 298 298
300 301 301 300 298 291 289 291 297 292 289 294 295 294 294 295 296 295 296 295 295 294 292 291 292 295 295 298 298 299 299 299 298 297 299 301 301 301 300 300 300 300 301 303 303 297 303 301 303 302 301 299 298 297
297 297 297 297 294 292 291 290 290 292 294 292 295 295 294 294 293 293 294 294 292 292 292 294 296 299 300 301 300 300 300 298 298 299 299 299 302 301 301 301 301 302 301 301 301 301 300 298 300 301 300 299 300 299
295 296 294 295 290 291 290 292 289 291 289 292 292 294 292 292 292 293 294 292 293 294 296 297 297 298 299 297 299 299 301 300 300 300 294 296 300 301 301 301 300 299 301 301 301 301 300 299 300 301 299 300 297 299
296 294 291 291 287 288 288 294 288 290 286 288 290 289 289 289 292 293 291 293 295 297 298 298 298 299 298 299 299 300 300 301 301 301 301 301 302 302 302 302 301 300 300 301 302 301 299 294 297 298 298 298 298 298
295 290 287 286 285 283 289 287 290 290 289 288 288 286 288 290 291 289 288 292 295 297 296 297 297 297 298 298 298 300 301 301 301 300 301 301 301 302 302 302 302 302 302 302 302 301 300 298 295 297 297 296 295 294
285 284 285 282 286 285 284 285 286 285 286 288 286 287 289 289 288 287 288 291 293 294 295 295 295 296 295 297 299 299 300 301 300 300 300 301 301 301 301 301 301 300 301 302 300 299 297 297 296 295 293 292 292 292
280 283 282 282 284 283 285 284 285 285 286 286 287 289 288 287 285 285 289 290 291 292 292 293 294 295 295 298 298 298 299 301 301 300 300 300 301 301 298 297 297 299 301 301 300 297 296 295 293 292 291 290 288 291
279 279 284 287 286 286 285 286 286 285 285 285 287 286 286 283 283 288 292 294 294 295 294 293 295 295 297 299 300 301 300 301 301 301 301 300 299 299 299 297 297 298 300 297 297 296 295 293 291 290 290 290 289 289
283 283 280 283 284 286 284 284 283 283 286 289 288 284 284 285 286 292 294 296 297 297 297 295 295 296 299 301 300 299 299 300 299 298 297 297 297 299 299 298 297 288 295 295 295 296 295 292 291 290 289 288 288 288
282 284 284 280 282 283 284 284 285 288 291 290 288 287 288 293 295 296 297 297 299 297 295 296 295 296 296 296 297 299 300 299 297 295 295 295 294 295 298 299 298 298 296 293 285 289 292 292 291 289 288 287 287 287
281 285 281 281 281 281 285 287 287 290 292 292 293 292 292 293 296 299 298 297 295 295 296 296 296 294 294 294 293 292 292 295 296 296 294 293 294 295 297 298 298 297 296 295 294 292 286 291 288 290 287 286 285 285
286 284 282 283 282 286 288 289 290 290 290 289 291 290 290 291 294 294 293 293 294 295 294 294 294 295 294 293 293 291 290 290 291 292 294 294 294 295 295 296 298 297 295 293 292 291 290 289 287 286 284 282 281 281
284 283 282 280 282 286 288 286 287 286 287 287 287 289 289 288 287 290 290 291 292 293 290 293 294 293 294 294 293 291 287 290 290 290 290 291 293 294 295 294 294 293 292 291 290 289 288 287 285 283 282 281 281 281
282 283 283 283 282 283 286 286 285 285 286 286 286 288 288 288 285 286 290 290 289 288 288 289 289 289 289 288 288 287 286 286 283 282 283 284 285 288 291 292 291 291 290 289 289 288 286 285 284 282 281 281 280 279
Wind_Speed
19 19 20 21 22 23 23 23 23 23 23 22 21 19 18 16 13 2 2 6 3 4 12 9 6 6 10 5 3 6 7 1 3 6 3 4 3 3 2 3 4 1 1 3 4 3 5 16 3 4 6 8 11 12
18 19 19 20 21 22 23 24 23 23 23 22 21 20 17 17 12 3 2 3 3 4 9 13 16 20 18 18 7 3 5 5 3 3 3 4 2 3 5 2 4 1 3 1 4 4 6 8 4 7 8 9 11 12
20 20 19 20 20 21 22 24 24 23 23 22 21 20 17 15 11 4 3 3 2 3 7 3 3 2 3 7 7 4 2 3 1 2 3 2 1 3 4 4 3 1 3 1 3 5 10 5 7 10 12 12 13 13
20 20 20 20 21 21 22 23 25 24 24 23 21 20 17 14 9 7 4 2 1 3 4 6 4 4 6 6 7 9 8 2 2 2 2 2 2 4 2 2 3 3 3 5 2 7 8 2 11 15 16 15 17 16
19 20 21 20 21 22 22 23 24 25 25 23 23 21 19 14 8 5 4 4 3 1 4 7 13 3 5 6 6 9 10 5 1 1 2 2 1 2 3 2 3 5 5 3 2 7 7 12 13 18 15 17 19 17
18 20 20 20 21 22 23 23 24 25 26 26 26 25 19 13 4 1 3 3 5 4 3 4 3 4 6 7 4 2 3 3 1 3 2 3 2 2 3 2 3 7 8 7 6 13 15 15 14 12 16 17 19 17
18 19 20 20 21 22 23 24 24 26 27 27 26 24 18 7 5 3 1 2 8 5 2 4 5 2 7 4 2 3 1 1 2 1 1 3 2 4 3 3 11 12 11 11 12 11 11 10 15 17 14 16 17 15
19 19 19 19 20 21 23 24 25 26 27 28 26 17 5 12 2 3 1 9 8 2 1 2 5 4 4 3 2 3 3 1 2 3 1 3 3 2 1 8 12 13 13 11 10 11 13 17 16 14 13 15 16 15
18 19 19 19 19 20 21 24 25 26 28 28 20 6 2 2 1 2 8 11 1 2 2 2 2 4 3 1 2 2 2 2 3 3 2 4 3 3 6 12 11 13 10 11 12 11 11 13 16 15 15 15 15 16
17 17 18 18 19 20 20 22 24 26 28 20 2 2 1 2 9 2 2 2 3 3 3 4 2 3 1 2 2 3 3 3 2 2 2 2 3 7 10 9 11 13 13 12 13 13 14 15 16 17 16 15 14 15
17 17 17 18 19 20 20 20 22 23 8 6 6 3 5 10 2 1 2 3 2 3 4 4 4 3 2 2 1 1 2 3 1 3 3 1 2 6 11 9 9 9 11 12 12 14 15 14 16 16 16 15 15 16
18 17 16 17 18 18 18 19 19 6 3 4 6 6 4 3 1 3 2 1 4 2 2 2 0 3 1 1 1 2 1 1 2 4 1 3 2 13 10 10 9 8 10 12 13 14 15 14 14 14 15 16 15 17
18 17 17 17 18 18 18 16 12 13 11 2 3 3 1 1 1 4 4 2 2 3 3 1 3 1 2 1 1 1 1 1 2 0 1 3 5 6 9 8 9 10 9 12 13 12 14 14 14 13 15 15 16 16
18 18 17 17 17 20 12 12 14 8 3 2 2 5 4 3 5 5 4 3 2 3 2 2 1 2 0 2 1 1 1 1 2 2 2 3 6 8 7 7 8 10 12 14 14 14 15 14 13 15 14 15 15 16
17 17 16 19 8 9 14 16 16 3 3 4 3 6 7 4 3 3 3 2 3 1 2 1 2 2 1 1 1 0 2 1 1 2 3 4 4 7 8 7 8 10 11 12 13 13 13 14 13 13 14 14 13 13
17 14 3 6 12 18 17 13 1 3 3 4 6 4 3 2 4 3 4 5 3 3 3 1 1 2 2 1 2 2 3 3 2 4 4 4 7 8 8 8 8 9 11 11 11 13 15 15 15 14 13 11 13 13
14 4 3 10 16 23 16 3 2 5 5 5 6 4 3 3 4 3 4 3 4 3 2 2 3 2 3 2 3 4 4 3 5 4 3 5 6 7 7 7 7 8 8 8 10 12 12 11 11 11 13 15 16 15
5 5 10 12 10 10 2 3 3 4 7 7 5 3 4 4 4 4 4 4 4 4 4 3 4 5 4 3 3 4 6 5 5 6 5 5 4 4 4 4 6 6 7 9 11 11 12 13 13 11 13 11 12 11
11 10 13 13 6 4 4 3 3 5 7 3 4 3 3 3 6 6 4 4 4 1 3 3 4 4 4 4 5 4 4 5 3 1 3 5 4 2 1 2 4 6 7 7 8 7 9 10 9 9 10 9 8 10
19 15 13 11 3 3 5 4 3 5 5 3 3 3 3 4 1 3 5 5 5 4 5 6 7 6 5 5 6 6 5 3 3 3 3 1 2 1 1 2 3 5 5 6 5 4 7 8 8 8 9 9 11 11
4 3 4 3 3 4 5 3 4 4 4 4 2 2 3 2 4 4 4 6 5 5 6 6 8 8 8 5 3 4 5 6 6 4 1 3 0 2 1 2 3 2 4 5 6 6 6 5 6 6 8 10 11 11
3 1 2 3 4 4 6 5 4 4 4 4 3 3 4 4 5 4 4 5 5 8 7 8 9 8 8 7 7 9 6 7 6 4 4 3 4 2 1 1 3 4 4 4 5 6 5 5 7 6 7 8 8 10
4 3 2 4 5 6 6 4 5 4 5 3 1 3 3 3 2 1 3 4 4 4 6 6 7 5 6 4 4 5 7 8 5 5 3 4 2 2 3 1 1 3 4 5 4 4 4 6 6 6 6 6 7 8
3 3 4 5 8 5 3 4 3 3 3 2 3 3 3 3 0 3 4 4 4 3 4 6 4 4 2 3 5 6 7 5 4 3 2 2 2 1 2 2 1 1 2 3 4 5 5 5 6 6 7 8 8 8
5 6 6 8 5 5 6 4 4 2 5 5 3 4 2 1 2 3 4 2 1 3 4 3 4 5 5 3 3 4 5 5 5 4 3 3 2 2 1 1 1 2 4 5 5 5 5 6 7 7 8 9 10 10
9 8 8 6 4 6 6 4 6 6 3 5 5 2 0 2 3 5 2 4 4 6 7 7 6 4 5 6 5 6 6 5 5 4 4 3 1 1 2 3 4 3 5 4 5 5 6 6 7 9 8 9 10 10
9 9 6 4 3 2 4 3 2 2 4 5 3 3 3 3 5 3 2 1 2 4 6 6 6 6 6 6 4 4 5 7 3 2 6 5 4 2 2 3 3 3 3 5 5 6 6 7 7 8 8 7 9 9
8 6 8 6 6 5 4 3 4 5 5 3 2 6 7 5 3 0 1 2 3 4 5 5 4 4 3 3 4 6 6 6 8 7 7 6 4 4 5 4 5 5 5 5 4 5 5 6 6 7 7 7 7 8
5 5 7 6 5 4 7 7 6 5 3 4 5 4 3 2 1 2 2 4 2 5 6 5 5 2 2 4 4 2 5 8 10 9 9 4 4 3 3 4 4 4 5 7 6 7 8 6 6 5 6 6 6 6
8 7 6 7 9 10 9 8 4 4 4 5 4 5 5 5 4 2 4 5 6 7 6 5 4 3 4 5 5 4 3 1 1 3 4 4 3 5 4 4 3 4 4 4 4 5 4 2 4 5 6 5 5 5
3 9 7 8 11 12 11 8 7 7 6 7 6 8 9 8 2 4 5 6 5 5 6 0 2 3 5 5 4 5 4 1 4 5 4 4 4 4 3 3 3 4 4 5 5 4 5 5 5 6 6 7 7 7
7 10 9 8 7 7 8 7 6 7 9 8 10 8 7 5 5 3 6 7 6 5 5 4 3 3 5 3 3 4 5 6 4 4 6 3 2 3 4 4 5 6 7 7 6 6 7 6 6 6 6 8 8 9
6 7 8 8 5 5 6 5 4 4 5 5 7 7 5 3 3 4 4 6 6 6 5 4 4 6 9 9 8 7 8 7 8 7 7 5 4 4 5 5 6 7 9 8 7 7 7 8 7 7 7 8 8 8
Wind_Direction
321 322 325 327 328 327 329 332 335 333 334 339 339 333 324 314 315 212 240 182 224 261 288 262 262 255 285 285 288 327 309 93 310 1 322 358 308 35 278 322 335 356 280 176 206 164 135 359 18 70 356 337 334 336
317 319 321 323 326 325 326 327 332 331 330 333 336 333 325 313 315 260 245 169 172 244 271 299 282 267 259 259 272 268 292 288 349 333 336 291 24 308 324 108 355 65 355 10 2 46 356 347 22 45 0 333 338 331
314 317 317 318 321 323 323 324 327 330 328 328 331 331 326 314 304 300 251 149 181 265 288 295 264 280 235 237 224 263 201 281 322 38 303 310 328 305 360 41 322 16 327 18 311 355 338 346 46 7 353 344 339 336
309 314 314 316 317 320 322 323 324 327 326 325 327 328 325 313 296 282 247 154 154 264 293 279 259 309 142 172 197 220 265 270 354 310 281 282 318 325 340 333 334 356 311 351 350 348 335 50 2 348 338 343 343 338
304 310 312 314 316 318 319 320 322 324 323 323 325 326 324 311 288 267 257 218 183 261 290 294 312 232 234 215 206 218 230 248 215 270 284 317 260 311 296 259 33 347 4 1 19 297 282 298 325 326 335 333 340 335
302 305 309 314 317 317 317 319 322 323 322 320 324 323 317 299 233 207 274 184 182 178 275 302 314 279 303 316 259 277 237 219 219 159 267 284 299 279 315 335 78 11 359 7 313 310 299 298 302 338 329 331 338 334
295 298 303 312 315 316 317 317 321 322 319 318 323 320 312 253 151 207 337 43 165 158 256 291 288 297 327 355 11 17 29 5 266 246 288 321 333 302 305 339 354 342 333 325 320 332 313 317 319 318 327 331 330 332
291 294 301 308 312 316 317 318 321 321 317 319 324 324 26 126 95 265 73 155 162 176 222 291 283 317 12 325 345 351 356 297 8 345 298 345 291 299 346 359 342 332 326 321 335 325 305 304 307 322 332 335 335 335
291 294 299 304 311 317 319 320 321 321 316 322 325 124 116 94 155 72 26 148 120 277 252 216 268 300 345 293 12 351 341 61 340 12 4 313 358 26 325 315 317 313 313 304 316 309 309 319 319 325 326 331 332 328
291 292 298 304 312 316 320 321 322 321 317 324 340 270 116 70 312 97 215 187 207 207 217 253 223 276 303 287 52 338 9 23 8 9 293 31 18 266 268 284 286 298 301 305 310 320 323 318 319 322 324 319 315 314
294 294 296 302 307 314 322 323 322 322 343 2 354 317 336 304 174 207 206 218 168 231 205 232 230 284 161 321 37 329 358 352 17 14 334 56 11 306 323 324 301 297 296 296 290 286 288 289 295 305 312 312 312 305
298 296 294 296 303 310 320 319 318 326 311 280 295 297 278 290 157 236 227 203 221 273 199 239 148 212 152 229 176 179 136 323 65 323 303 15 300 327 340 337 334 324 324 319 325 315 306 302 299 299 300 301 301 298
305 301 295 296 300 306 314 308 311 308 306 257 193 239 297 244 251 216 211 205 242 202 220 200 327 208 156 140 100 136 166 179 304 76 94 237 291 311 331 335 341 338 328 317 311 314 325 328 318 314 306 299 295 292
303 299 295 292 294 302 299 305 323 329 286 259 245 278 207 219 238 198 192 197 224 238 263 284 200 261 144 194 187 222 92 237 105 117 210 262 302 325 317 313 320 338 341 330 328 333 328 328 330 320 314 308 297 288
303 298 300 298 287 320 314 321 325 233 200 231 190 237 226 241 261 254 226 250 215 250 193 166 150 221 125 219 21 80 167 134 261 206 236 253 290 307 308 303 305 314 324 322 328 327 322 332 332 330 330 324 305 287
314 308 265 295 320 308 319 320 234 180 224 224 232 243 209 256 247 210 211 247 181 148 130 158 162 213 186 193 215 208 170 202 218 223 247 304 303 309 315 311 297 306 321 324 329 339 339 338 338 323 324 324 328 306
308 239 276 316 321 311 312 250 198 222 232 224 237 219 206 263 259 249 200 216 151 169 214 163 217 224 117 228 224 195 212 214 223 252 251 271 288 303 310 300 290 310 325 333 330 343 343 334 335 335 338 340 322 310
250 257 276 298 317 313 263 220 243 244 244 236 238 206 197 223 232 236 208 178 179 193 170 220 125 187 207 204 223 222 228 255 256 265 280 283 274 304 316 296 305 315 331 335 338 339 357 356 360 351 334 331 327 342
293 289 281 277 306 305 282 244 212 261 246 261 247 219 228 238 227 248 231 178 202 173 158 187 229 203 207 205 231 234 230 223 250 262 272 291 260 271 324 330 341 356 339 340 342 343 348 343 344 338 343 339 337 345
298 287 273 280 238 240 263 252 218 256 262 266 249 221 220 228 251 224 225 181 181 189 197 211 218 226 211 217 208 225 229 185 200 252 282 1 156 268 143 63 5 327 319 331 344 335 342 343 344 340 348 351 351 352
290 266 308 164 181 222 277 274 252 236 277 261 278 241 253 222 233 216 216 159 183 215 233 220 230 229 224 234 208 215 221 192 207 220 258 289 302 313 289 67 18 339 329 325 337 348 347 351 325 329 334 344 349 354
251 238 285 197 237 226 249 230 248 298 258 264 272 227 255 250 253 228 148 192 228 237 223 230 231 234 233 228 223 214 218 190 204 203 223 235 251 269 228 28 340 344 344 332 337 342 346 348 343 346 340 348 339 338
188 175 213 228 230 226 250 172 223 227 247 249 280 240 229 235 225 149 240 228 247 244 241 231 241 235 245 244 212 187 186 187 186 200 204 219 233 240 239 238 265 331 345 354 339 334 353 343 350 352 350 341 346 354
129 219 224 226 201 246 239 231 212 243 235 241 240 254 230 232 23 227 237 254 278 270 228 231 200 177 163 199 220 206 181 182 177 175 151 186 202 181 236 267 232 195 341 313 325 340 355 352 1 359 7 3 353 353
220 223 227 225 213 221 215 225 212 217 239 203 235 262 235 104 241 247 249 278 294 311 293 238 223 235 229 219 209 175 165 165 164 165 154 189 199 217 250 285 0 59 7 338 19 3 9 1 1 2 11 12 5 2
217 220 213 210 207 207 210 222 206 219 213 205 226 250 206 199 234 248 227 351 347 355 344 328 303 262 232 224 190 171 164 165 152 161 156 179 147 28 6 357 358 64 29 6 355 11 12 14 10 4 7 12 11 11
218 225 212 225 245 248 258 255 280 254 229 216 210 188 177 223 243 247 140 79 26 339 337 312 288 263 249 190 170 149 139 148 146 123 116 115 101 79 30 5 23 56 47 49 26 24 20 18 11 13 12 22 17 14
221 205 194 202 209 213 230 192 210 223 230 211 181 194 185 211 249 100 176 184 267 314 3 2 347 309 277 190 148 138 121 124 118 119 110 96 78 87 97 95 84 94 91 79 79 64 52 38 23 19 21 26 22 16
219 200 210 224 207 207 214 212 231 224 214 198 209 215 231 213 247 249 306 314 300 337 324 340 352 3 69 78 79 91 149 158 166 173 188 174 165 149 149 138 144 135 108 92 49 50 63 64 63 51 34 25 25 29
217 189 209 219 224 228 224 208 233 245 235 250 273 285 268 248 257 297 294 301 300 295 297 280 302 248 248 165 133 104 54 78 218 183 194 199 157 128 148 169 160 136 123 116 110 109 122 107 69 55 49 36 23 31
192 183 218 226 245 245 248 244 249 247 251 255 250 248 258 274 269 61 23 338 302 302 277 304 63 227 171 155 161 156 147 153 115 104 99 111 124 135 148 148 140 135 124 116 113 108 104 84 70 60 52 57 50 48
196 202 214 224 243 248 237 239 236 230 238 234 239 234 236 231 230 78 3 355 356 352 4 358 314 4 40 61 72 45 45 118 121 112 96 86 98 104 105 109 120 121 118 113 108 101 90 84 83 85 79 77 77 72
222 214 223 244 243 234 215 207 212 249 226 234 241 216 203 182 102 30 0 10 23 13 19 37 61 76 80 81 89 82 69 67 55 37 58 65 60 84 104 105 107 109 110 106 103 102 95 97 96 100 98 94 88 85